STARLINK-1722, 46361

Orbit data source: Space-Track

STARLINK-1722, 46361 is a payload satellite owned by SpaceX/Seattle (US) in LEO that was launched on Thu, 03 Sep 2020 UTC via an FALCON 9 launch vehicle from the Air Force Eastern Test Range (AFETR). Payloads include a variety of satellites, spacecraft, and rockets equipped with specific instruments for various scientific and technological missions. These include communications satellites like Starlink; space stations such as the ISS; scientific satellites like the Hubble; Earth observation satellites from companies like Planet Labs, Umbra, and HawkEye 360; GPS; miniature CubeSats for education and research; and military/defense satellites.

Loading next visibility...
STARLINK-1722 details
Identifier
46361, 2020-062AN
Orbit
LEO
Last TLE update5 hours ago
Origin
Flag of USSpaceX/Seattle (US)
ManufacturerSpaceX/Seattle
MissionPartially operational Commercial Communications
Bus & MotorSTARLINK, Unknown motor
Mass260 kg wet, ~248 kg dry
Launch date (UTC)
2020-09-03 (4 years ago)
Launch vehicle
FALCON 9
Launch site
Air Force Eastern Test Range (AFETR)
Object type
Payload
Rocket body
Debris
Shape & HBRBox + 1 Pan, 8.86 m
Radar Cross Section13.562 m², Large (>1 m²)

Expand to show TLE details & history

TLE from 5 hours ago
0 STARLINK-1722
1 46361U 20062AN  24340.25001157  .00658045  00000-0  14453-1 0  9990
2 46361  53.0501 230.4004 0001008 102.9097 194.9009 15.41320736235910
Epoch: 2024-12-05T06:00Z
Definitive object data (Epoch: 2024-12-05T06:00:00.999Z)
Latitude-45.17245°
Longitude17.05248°
Altitude458.159 km
Speed7.637 km/s
True Right ascension12h 06m 21s
True Declination-44° 59' 35"
Sunlit
Object was in daylight at TLE epoch
Visualization TLE readout
Latitude-23.2801°
Longitude46.13902°
Altitude448.622 km
Speed7.643 km/s
Apparent Right ascension16h 50m 51s
Apparent Declination-43° 15' 04"
Sunlit
Object is in daylight
Visualization observer readout
Local Sidereal Time08:47:04
Azimuth114.539° SE
Elevation-46.631°
Doppler factor1
Orbital elements
Apogee altitude443.173 km
Perigee altitude441.798 km
Semi-major axis6,820.623 km
Eccentricity0.0001008
Inclination53.0501°
RAAN230.4004°
Arg. of periapsis102.9097°
True anomaly194.89793°
Mean anomaly194.9009°
Eccentric anomaly194.89942°
Mean motion3.85307 °/min
BSTAR0.014453
Orbital period93.43 mins
Loading maneuver chart data...
Loading historical data...
Loading historical data...
Loading historical data...
Loading historical data...
Loading historical data...
Loading historical data...
Loading historical data...

STARLINK-1722 Visibility forecast

Observer location: undefined°, undefined

Span
Click to sort rows by Start time (UTC) header in descending order
Start Az.
Max El. time (UTC)
Max El. Az.
Max El.
End time (UTC)
End Az.
5 mins2024-12-05 18:52:37.395Z183.426° SSW2024-12-05 18:54:37.395Z141.659° SSE23.322°2024-12-05 18:57:37.395Z75.689° E
4 mins2024-12-05 20:30:37.395Z282.365° WNW2024-12-05 20:31:37.395Z312.521° NW28.837°2024-12-05 20:34:37.395Z31.002° NE
5 mins2024-12-06 01:23:37.395Z330.275° NNW2024-12-06 01:26:37.395Z33.139° NE23.954°2024-12-06 01:28:37.395Z79.46° E
5 mins2024-12-06 03:01:37.395Z285.59° WNW2024-12-06 03:03:37.395Z228.808° WSW31.643°2024-12-06 03:06:37.395Z158.406° S
|